Regional Weather Roundup
Issued by NWS

Home | Current Version | Previous Version | Text Only | Print | Product List | Glossary On
Versions: 1 2 3 4 5 6 7 8 9 10 11 12 13 14 15 16 17 18 19 20 21 22 23 24 25 26 27
000
ASUS45 KCYS 200210
RWRWY

WYOMING REGIONAL WEATHER ROUNDUP
NATIONAL WEATHER SERVICE CHEYENNE WY
800 PM MDT TUE SEP 19 2017

NOTE:  "FAIR" INDICATES FEW OR NO CLOUDS BELOW 12,000 FEET
WITH NO SIGNIFICANT WEATHER AND/OR OBSTRUCTIONS TO VISIBILITY.

WYZ001-200300-
YELLOWSTONE NATIONAL PARK

CITY           SKY/WX    TMP DP  RH WIND       PRES   REMARKS
LK YELLOWSTONE   N/A     29  29 100 VRB3      29.87S
W YELLOWSTONE  NOT AVBL

$$
WYZ002>013-054>058-071-098>099-200300-
NORTHERN WYOMING

CITY           SKY/WX    TMP DP  RH WIND       PRES   REMARKS
JACKSON        CLOUDY    39  29  67 S9        29.90R WCI  33
CODY           FAIR      42  32  67 CALM      29.81F
GREYBULL       CLOUDY    52  40  63 W12       29.77R
WORLAND        MOCLDY    46  43  89 S7        29.76R
SHERIDAN       FAIR      42  38  85 S7        29.74R
BUFFALO        FAIR      43  37  79 S5        29.78S
GILLETTE       FAIR      41  38  89 SW3       29.77R
HULETT         FAIR      43  41  93 SW7       29.78S
NEWCASTLE      FAIR      43  37  81 N12G22    29.78S

$$
WYZ014>020-022>026-101>103-200300-
CENTRAL WYOMING

CITY           SKY/WX    TMP DP  RH WIND       PRES   REMARKS
BIG PINEY      FAIR      32  30  92 N7        29.97R WCI  26
PINEDALE       FAIR      32  32 100 NW5       29.97R WCI  27
DUBOIS         MOCLDY    34  28  80 NW9       29.87R WCI  26
LANDER           N/A    N/A N/A N/A MISG      29.84R
RIVERTON       FAIR      41  31  67 NW8       29.84R
CASPER         FAIR      46  33  60 SW16      29.82R
DOUGLAS        FAIR      48  30  49 W20G29    29.82R

$$
WYZ021-027>030-104>119-200300-
SOUTHERN WYOMING

CITY           SKY/WX    TMP DP  RH WIND       PRES   REMARKS
EVANSTON       FAIR      40  29  64 W10       29.99R WCI  33
KEMMERER         N/A     34  32  93 NW8       29.98R WCI  27
FORT BRIDGER   FAIR      40  32  74 W9        30.00S WCI  34
ROCK SPRINGS   MOCLDY    40  31  70 W13       29.96R WCI  32
DIXON          CLOUDY    38  35  89 NE8       30.02R WCI  32
RAWLINS        MOCLDY    37  31  78 W17       29.94S WCI  27
SARATOGA       MOCLDY    34  34 100 S9G16     29.98S WCI  26
LARAMIE        CLOUDY    38  32  79 W8        29.98R WCI  32
CHEYENNE       FAIR      47  28  47 NW29G47   29.81R
TORRINGTON     FAIR      51  31  46 W8        29.78R
PINE BLUFFS    FAIR      46  30  53 NW33G40   29.82S

$$




USA.gov is the U.S. government's official web portal to all federal, state and local government web resources and services.